Weather History for KMDJ - January, 2014

Change the Weather History Date:

Sunday, January 26, 2014

  Actual Average Record
Temperature  
Mean Temperature 62 °F -  
Max Temperature 68 °F - - ()
Min Temperature 57 °F - - ()
Degree Days  
Heating Degree Days 2    
Growing Degree Days 12 (Base 50)    
Moisture  
Dew Point 54 °F    
Average Humidity 80    
Maximum Humidity 94    
Minimum Humidity 67    
Precipitation  
Precipitation 0.00 in - - ()
Sea Level Pressure  
Sea Level Pressure 30.02 in    
Wind  
Wind Speed 10 mph (SW)    
Max Wind Speed 18 mph    
Max Gust Speed 24 mph    
Visibility 10 miles    
Events      
T = Trace of Precipitation, MM = Missing Value Source: NWS Daily Summary

Daily Weather History Graph

Daily Weather History Graph

Search for Another Location

Airport or City:

Trip Planner

Search our weather history database for the weather conditions in past years. The results will help you decide how hot, cold, wet, or windy it might be!

Date:

Astronomy

Jan. 26, 2014 Rise Set
Actual Time 6:50 AM CST 5:33 PM CST
Civil Twilight 6:25 AM CST 5:58 PM CST
Nautical Twilight 5:56 AM CST 6:27 PM CST
Astronomical Twilight 5:28 AM CST 6:55 PM CST
Moon 2:26 AM CST (1/26) 1:25 PM CST (1/26)
Length of Visible Light 11h 33m
Length of Day
10h 43m
Waning Crescent, 23% of the Moon is Illuminated
Jan 26
Waning Crescent
Jan 30
New
Feb 6
First Quarter
Feb 14
Full
Feb 22
Last Quarter

Hourly Weather History & Observations

Time (CST) Temp. Dew Point Humidity Pressure Visibility Wind Dir Wind Speed Gust Speed Precip Events Conditions
12:15 AM 59.0 °F 48.2 °F 67% 30.10 in 10.0 mi West 13.8 mph - N/A   Mostly Cloudy
12:35 AM 59.0 °F 48.2 °F 67% 30.09 in 10.0 mi WNW 12.7 mph - N/A   Mostly Cloudy
12:55 AM 59.0 °F 48.2 °F 67% 30.09 in 10.0 mi West 12.7 mph - N/A   Mostly Cloudy
1:15 AM 59.0 °F 48.2 °F 67% 30.08 in 10.0 mi West 12.7 mph - N/A   Mostly Cloudy
1:35 AM 59.0 °F 48.2 °F 67% 30.07 in 10.0 mi WNW 12.7 mph - N/A   Mostly Cloudy
1:55 AM 57.2 °F 50.0 °F 77% 30.06 in 10.0 mi WNW 11.5 mph - N/A   Mostly Cloudy
2:15 AM 57.2 °F 50.0 °F 77% 30.06 in 10.0 mi WNW 10.4 mph - N/A   Mostly Cloudy
2:35 AM 57.2 °F 50.0 °F 77% 30.06 in 10.0 mi WNW 10.4 mph - N/A   Mostly Cloudy
2:55 AM 57.2 °F 51.8 °F 82% 30.07 in 10.0 mi West 9.2 mph - N/A   Mostly Cloudy
3:15 AM 59.0 °F 50.0 °F 72% 30.07 in 10.0 mi WNW 11.5 mph - N/A   Mostly Cloudy
3:35 AM 57.2 °F 51.8 °F 82% 30.07 in 10.0 mi WNW 12.7 mph - N/A   Overcast
3:55 AM 59.0 °F 51.8 °F 77% 30.07 in 10.0 mi West 11.5 mph - N/A   Overcast
4:15 AM 57.2 °F 50.0 °F 77% 30.07 in 10.0 mi WNW 10.4 mph - N/A   Mostly Cloudy
4:35 AM 59.0 °F 51.8 °F 77% 30.06 in 10.0 mi WNW 9.2 mph - N/A   Scattered Clouds
4:55 AM 57.2 °F 51.8 °F 82% 30.06 in 10.0 mi WNW 9.2 mph - N/A   Partly Cloudy
5:15 AM 57.2 °F 51.8 °F 82% 30.06 in 10.0 mi WNW 6.9 mph - N/A   Clear
5:35 AM 59.0 °F 51.8 °F 77% 30.07 in 10.0 mi WNW 9.2 mph - N/A   Clear
5:55 AM 57.2 °F 51.8 °F 82% 30.07 in 10.0 mi NW 6.9 mph - N/A   Mostly Cloudy
6:15 AM 57.2 °F 51.8 °F 82% 30.08 in 10.0 mi NNW 9.2 mph - N/A   Mostly Cloudy
6:35 AM 57.2 °F 51.8 °F 82% 30.08 in 10.0 mi NNW 9.2 mph - N/A   Mostly Cloudy
6:55 AM 57.2 °F 51.8 °F 82% 30.08 in 10.0 mi NNW 8.1 mph - N/A   Partly Cloudy
7:15 AM 57.2 °F 51.8 °F 82% 30.08 in 10.0 mi NNW 6.9 mph - N/A   Clear
7:35 AM 57.2 °F 51.8 °F 82% 30.08 in 10.0 mi North 4.6 mph - N/A   Clear
7:55 AM 57.2 °F 51.8 °F 82% 30.08 in 10.0 mi North 4.6 mph - N/A   Clear
8:15 AM 57.2 °F 51.8 °F 82% 30.09 in 10.0 mi North 5.8 mph - N/A   Clear
8:35 AM 57.2 °F 51.8 °F 82% 30.10 in 10.0 mi North 5.8 mph - N/A   Clear
8:55 AM 57.2 °F 51.8 °F 82% 30.10 in 10.0 mi North 3.5 mph - N/A   Clear
9:15 AM 57.2 °F 51.8 °F 82% 30.10 in 10.0 mi North 4.6 mph - N/A   Clear
9:35 AM 57.2 °F 51.8 °F 82% 30.10 in 10.0 mi NNE 4.6 mph - N/A   Clear
9:55 AM 57.2 °F 51.8 °F 82% 30.10 in 10.0 mi Calm Calm - N/A   Clear
10:15 AM 57.2 °F 51.8 °F 82% 30.10 in 10.0 mi NE 3.5 mph - N/A   Clear
10:35 AM 57.2 °F 51.8 °F 82% 30.09 in 10.0 mi ENE 4.6 mph - N/A   Clear
10:55 AM 57.2 °F 51.8 °F 82% 30.08 in 10.0 mi East 8.1 mph - N/A   Clear
11:15 AM 57.2 °F 51.8 °F 82% 30.07 in 10.0 mi East 8.1 mph - N/A   Clear
11:35 AM 57.2 °F 51.8 °F 82% 30.06 in 10.0 mi East 8.1 mph - N/A   Clear
11:55 AM 57.2 °F 51.8 °F 82% 30.04 in 10.0 mi ESE 10.4 mph - N/A   Clear
12:15 PM 57.2 °F 51.8 °F 82% 30.03 in 10.0 mi ESE 9.2 mph - N/A   Clear
12:35 PM 57.2 °F 51.8 °F 82% 30.02 in 10.0 mi SE 8.1 mph - N/A   Clear
12:55 PM 57.2 °F 53.6 °F 88% 30.01 in 10.0 mi ESE 8.1 mph - N/A   Clear
1:15 PM 57.2 °F 53.6 °F 88% 30.00 in 10.0 mi ESE 6.9 mph - N/A   Clear
1:35 PM 57.2 °F 53.6 °F 88% 29.99 in 10.0 mi ESE 6.9 mph - N/A   Clear
1:55 PM 59.0 °F 53.6 °F 82% 29.98 in 10.0 mi ESE 6.9 mph - N/A   Clear
2:15 PM 59.0 °F 55.4 °F 88% 29.97 in 10.0 mi ESE 6.9 mph - N/A   Clear
2:35 PM 59.0 °F 55.4 °F 88% 29.96 in 10.0 mi ESE 9.2 mph - N/A   Clear
2:55 PM 59.0 °F 55.4 °F 88% 29.95 in 10.0 mi ESE 8.1 mph - N/A   Clear
3:15 PM 59.0 °F 57.2 °F 94% 29.95 in 10.0 mi ESE 6.9 mph - N/A   Clear
3:35 PM 59.0 °F 57.2 °F 94% 29.95 in 10.0 mi East 6.9 mph - N/A   Clear
3:55 PM 60.8 °F 57.2 °F 88% 29.94 in 10.0 mi East 6.9 mph - N/A   Clear
4:15 PM 60.8 °F 57.2 °F 88% 29.94 in 10.0 mi East 5.8 mph - N/A   Clear
4:35 PM 60.8 °F 57.2 °F 88% 29.95 in 10.0 mi East 6.9 mph - N/A   Clear
4:55 PM 60.8 °F 57.2 °F 88% 29.95 in 10.0 mi ESE 6.9 mph - N/A   Clear
5:15 PM 60.8 °F 57.2 °F 88% 29.95 in 10.0 mi SE 6.9 mph - N/A   Clear
5:35 PM 62.6 °F 57.2 °F 82% 29.95 in 10.0 mi SSE 4.6 mph - N/A   Clear
5:55 PM 62.6 °F 57.2 °F 82% 29.94 in 10.0 mi SSE 6.9 mph - N/A   Clear
6:15 PM 62.6 °F 57.2 °F 82% 29.94 in 10.0 mi South 6.9 mph - N/A   Partly Cloudy
6:35 PM 64.4 °F 57.2 °F 77% 29.95 in 10.0 mi SSW 6.9 mph - N/A   Mostly Cloudy
6:55 PM 64.4 °F 57.2 °F 77% 29.95 in 10.0 mi SSW 6.9 mph - N/A   Overcast
7:15 PM 64.4 °F 57.2 °F 77% 29.95 in 10.0 mi SSW 9.2 mph - N/A   Overcast
7:35 PM 66.2 °F 57.2 °F 73% 29.95 in 10.0 mi SSW 9.2 mph - N/A   Partly Cloudy
7:55 PM 66.2 °F 57.2 °F 73% 29.95 in 10.0 mi SSW 8.1 mph - N/A   Mostly Cloudy
8:15 PM 66.2 °F 57.2 °F 73% 29.95 in 10.0 mi SSW 9.2 mph - N/A   Scattered Clouds
8:35 PM 66.2 °F 57.2 °F 73% 29.96 in 10.0 mi SSW 10.4 mph - N/A   Scattered Clouds
8:55 PM 66.2 °F 57.2 °F 73% 29.96 in 10.0 mi SSW 9.2 mph - N/A   Mostly Cloudy
9:15 PM 66.2 °F 57.2 °F 73% 29.96 in 10.0 mi SSW 10.4 mph - N/A   Unknown
9:35 PM 66.2 °F 57.2 °F 73% 29.96 in 10.0 mi SSW 11.5 mph 17.3 mph N/A   Unknown
9:45 PM 66.2 °F 57.2 °F 73% 29.96 in 10.0 mi SSW 10.4 mph - N/A   Unknown
10:15 PM 66.2 °F 57.2 °F 73% 29.96 in 10.0 mi SSW 12.7 mph - N/A   Unknown
10:35 PM 66.2 °F 59.0 °F 78% 29.95 in 10.0 mi SSW 15.0 mph - N/A   Mostly Cloudy
10:55 PM 66.2 °F 59.0 °F 78% 29.95 in 10.0 mi SSW 15.0 mph - N/A   Overcast
11:15 PM 68.0 °F 57.2 °F 68% 29.94 in 10.0 mi SSW 16.1 mph 24.2 mph N/A   Mostly Cloudy
11:35 PM 68.0 °F 59.0 °F 73% 29.94 in 10.0 mi SSW 18.4 mph - N/A   Mostly Cloudy
11:55 PM 68.0 °F 59.0 °F 73% 29.95 in 10.0 mi SSW 15.0 mph - N/A   Overcast